Overview Statistics Trail Chart Weather Telemetry Raw packets
 

This is the latest recevied weather packets stored in our database for station/object N7WSS. If no packets are shown the sender has not sent any weather packets the latest 10 day(s).

<< 62 63 64 65 66 67 68 >>
Time Temp. Humidity Pressure Rain* Wind** Luminosity Snow
1788197801 24.44° C 76% 1017.6 hPa 0 mm - - -
1788197493 24.44° C 76% 1017.4 hPa 0 mm - - -
1788197193 24.44° C 75% 1017.6 hPa 0 mm - - -
1788196892 24.44° C 74% 1017.3 hPa 0 mm - - -
1788196587 25° C 72% 1017.2 hPa 0 mm - - -
1788196285 25.56° C 71% 1016.8 hPa 0 mm - - -
1788195981 26.11° C 68% 1016.8 hPa 0 mm - - -
1788195678 27.22° C 58% 1016.8 hPa 0 mm - - -
1788195373 28.33° C 50% 1016.2 hPa 0 mm - - -
1788195070 28.33° C 53% 1015.9 hPa 0 mm - - -
1788194765 28.33° C 52% 1016 hPa 0 mm - - -
1788194461 28.33° C 54% 1016 hPa 0 mm - - -
1788194161 28.33° C 54% 1015.9 hPa 0 mm - - -
1788193857 27.78° C 55% 1015.9 hPa 0 mm - - -
1788193556 28.33° C 55% 1015.5 hPa 0 mm - - -
1788193254 28.33° C 60% 1015.5 hPa 0 mm - - -
1788192950 28.33° C 57% 1015.5 hPa 0 mm - - -
1788192647 27.78° C 58% 1015.9 hPa 0 mm - - -
1788192345 28.33° C 59% 1015.7 hPa 0 mm - - -
1788192041 27.22° C 60% 1015.6 hPa 0 mm - - -
1788191735 27.78° C 60% 1015.5 hPa 0 mm - - -
1788191431 27.78° C 58% 1015.4 hPa 0 mm - - -
1788191137 27.22° C 61% 1015.4 hPa 0 mm - - -
1788190827 26.67° C 62% 1015.4 hPa 0 mm - - -
1788190526 26.11° C 65% 1015.7 hPa 0 mm - - -

* Rain latest hour (hover to see other rain measurements)
** Current wind speed in m/s (hover to see current wind gust speed)